Burlington, WA

5:24 PM PDT on August 21, 2017 (GMT -0700)
Skagit Regional

Weather History for KBVS - July, 2014

Change the Weather History Date:

Monday, July 14, 2014

  Actual Average Record
Temperature  
Mean Temperature 68 °F -  
Max Temperature 78 °F 71 °F 90 °F (1961)
Min Temperature 57 °F 49 °F 42 °F (1970)
Cooling Degree Days 2    
Growing Degree Days 18 (Base 50)    
Moisture  
Dew Point 56 °F    
Average Humidity 71    
Maximum Humidity 94    
Minimum Humidity 47    
Precipitation  
Precipitation 0.00 in - - ()
Sea Level Pressure  
Sea Level Pressure 30.10 in    
Wind  
Wind Speed 5 mph (SW)    
Max Wind Speed 10 mph    
Max Gust Speed -    
Visibility 10 miles    
Events      
Averages and records for this station are not official NWS values.
T = Trace of Precipitation, MM = Missing Value Source: NWS Daily Summary

Daily Weather History Graph

Daily Weather History Graph

Search for Another Location

Airport or City:

Trip Planner

Search our weather history database for the weather conditions in past years. The results will help you decide how hot, cold, wet, or windy it might be!

Date:

Astronomy

Jul. 14, 2014 Rise Set
Actual Time 5:23 AM PDT 9:07 PM PDT
Civil Twilight 4:42 AM PDT 9:47 PM PDT
Nautical Twilight 3:48 AM PDT 10:41 PM PDT
Astronomical Twilight 2:28 AM PDT 12:00 AM PDT
Moon 10:20 PM PDT (7/14) 8:29 AM PDT (7/14)
Length of Visible Light 17h 04m
Length of Day
15h 44m
Waning Gibbous, 92% of the Moon is Illuminated
Jul 14
Waning Gibbous
Jul 18
Last Quarter
Jul 26
New
Aug 3
First Quarter
Aug 10
Full

Hourly Weather History & Observations

Time (PDT) Temp. Dew Point Humidity Pressure Visibility Wind Dir Wind Speed Gust Speed Precip Events Conditions
12:15 AM 64.4 °F 55.4 °F 73% 30.09 in 10.0 mi WSW 4.6 mph - 0.00 in   Scattered Clouds
12:35 AM 62.6 °F 55.4 °F 77% 30.08 in 10.0 mi South 3.5 mph - 0.00 in   Partly Cloudy
12:55 AM 62.6 °F 55.4 °F 77% 30.09 in 10.0 mi SSW 5.8 mph - 0.00 in   Clear
1:15 AM 62.6 °F 55.4 °F 77% 30.10 in 10.0 mi SW 6.9 mph - 0.00 in   Clear
1:35 AM 62.6 °F 55.4 °F 77% 30.09 in 10.0 mi WSW 3.5 mph - 0.00 in   Clear
1:55 AM 62.6 °F 55.4 °F 77% 30.11 in 10.0 mi SW 10.4 mph - 0.00 in   Clear
2:15 AM 62.6 °F 55.4 °F 77% 30.10 in 10.0 mi SW 8.1 mph - 0.00 in   Clear
2:35 AM 62.6 °F 55.4 °F 77% 30.09 in 10.0 mi South 3.5 mph - 0.00 in   Clear
2:55 AM 60.8 °F 55.4 °F 82% 30.11 in 10.0 mi SE 10.4 mph - 0.00 in   Clear
3:15 AM 60.8 °F 55.4 °F 82% 30.11 in 10.0 mi South 5.8 mph - 0.00 in   Clear
3:35 AM 60.8 °F 55.4 °F 82% 30.12 in 10.0 mi South 4.6 mph - 0.00 in   Clear
3:55 AM 60.8 °F 55.4 °F 82% 30.12 in 10.0 mi South 4.6 mph - 0.00 in   Clear
4:15 AM 59.0 °F 55.4 °F 88% 30.12 in 10.0 mi Calm Calm - 0.00 in   Clear
4:35 AM 57.2 °F 55.4 °F 94% 30.12 in 10.0 mi SW 3.5 mph - 0.00 in   Clear
4:55 AM 57.2 °F 55.4 °F 94% 30.12 in 10.0 mi SSW 4.6 mph - 0.00 in   Clear
5:15 AM 57.2 °F 55.4 °F 94% 30.12 in 10.0 mi East 4.6 mph - 0.00 in   Clear
5:35 AM 57.2 °F 55.4 °F 94% 30.12 in 10.0 mi Calm Calm - 0.00 in   Clear
5:55 AM 57.2 °F 55.4 °F 94% 30.12 in 9.0 mi Calm Calm - 0.00 in   Clear
6:15 AM 57.2 °F 53.6 °F 88% 30.13 in 10.0 mi Calm Calm - 0.00 in   Clear
6:55 AM 60.8 °F 55.4 °F 82% 30.13 in 9.0 mi Calm Calm - 0.00 in   Clear
7:15 AM 60.8 °F 55.4 °F 82% 30.13 in 10.0 mi Calm Calm - 0.00 in   Clear
7:35 AM 62.6 °F 55.4 °F 77% 30.13 in 9.0 mi SW 3.5 mph - 0.00 in   Clear
7:55 AM 64.4 °F 55.4 °F 73% 30.13 in 10.0 mi SW 5.8 mph - 0.00 in   Clear
8:15 AM 64.4 °F 55.4 °F 73% 30.14 in 10.0 mi SSW 6.9 mph - 0.00 in   Clear
8:35 AM 64.4 °F 55.4 °F 73% 30.14 in 10.0 mi SW 5.8 mph - 0.00 in   Clear
8:55 AM 64.4 °F 55.4 °F 73% 30.13 in 10.0 mi SSW 8.1 mph - 0.00 in   Clear
9:15 AM 66.2 °F 55.4 °F 68% 30.13 in 10.0 mi SSW 5.8 mph - 0.00 in   Clear
9:35 AM 66.2 °F 55.4 °F 68% 30.13 in 10.0 mi SSW 6.9 mph - 0.00 in   Clear
9:55 AM 66.2 °F 55.4 °F 68% 30.13 in 10.0 mi SSW 8.1 mph - 0.00 in   Clear
10:15 AM 66.2 °F 55.4 °F 68% 30.13 in 10.0 mi SSW 6.9 mph - 0.00 in   Clear
10:35 AM 68.0 °F 57.2 °F 68% 30.13 in 10.0 mi SSW 8.1 mph - 0.00 in   Clear
10:55 AM 69.8 °F 57.2 °F 64% 30.13 in 10.0 mi SSW 8.1 mph - 0.00 in   Clear
11:15 AM 69.8 °F 57.2 °F 64% 30.13 in 10.0 mi South 5.8 mph - 0.00 in   Clear
11:35 AM 69.8 °F 57.2 °F 64% 30.13 in 10.0 mi SSW 5.8 mph - 0.00 in   Clear
11:55 AM 71.6 °F 59.0 °F 64% 30.12 in 10.0 mi SSW 8.1 mph - 0.00 in   Clear
12:15 PM 73.4 °F 59.0 °F 61% 30.12 in 10.0 mi WSW 4.6 mph - 0.00 in   Clear
12:35 PM 73.4 °F 59.0 °F 61% 30.11 in 10.0 mi South 5.8 mph - 0.00 in   Clear
12:55 PM 75.2 °F 57.2 °F 53% 30.11 in 10.0 mi SW 8.1 mph - 0.00 in   Clear
1:15 PM 77.0 °F 60.8 °F 57% 30.10 in 9.0 mi SSW 5.8 mph - 0.00 in   Clear
1:35 PM 77.0 °F 60.8 °F 57% 30.10 in 8.0 mi SW 8.1 mph - 0.00 in   Clear
1:55 PM 75.2 °F 59.0 °F 57% 30.11 in 10.0 mi West 6.9 mph - 0.00 in   Clear
2:55 PM 75.2 °F 57.2 °F 53% 30.10 in 10.0 mi West 6.9 mph - 0.00 in   Clear
3:15 PM 75.2 °F 57.2 °F 53% 30.09 in 10.0 mi West 6.9 mph - 0.00 in   Clear
3:35 PM 78.8 °F 57.2 °F 47% 30.09 in 10.0 mi SSW 6.9 mph - 0.00 in   Clear
3:55 PM 78.8 °F 57.2 °F 47% 30.08 in 10.0 mi WSW 6.9 mph - 0.00 in   Clear
4:15 PM 78.8 °F 57.2 °F 47% 30.08 in 10.0 mi SW 5.8 mph - 0.00 in   Clear
4:35 PM 78.8 °F 57.2 °F 47% 30.08 in 10.0 mi SW 6.9 mph - 0.00 in   Clear
4:55 PM 78.8 °F 57.2 °F 47% 30.08 in 10.0 mi WSW 6.9 mph - 0.00 in   Clear
5:15 PM 75.2 °F 57.2 °F 53% 30.08 in 10.0 mi SW 8.1 mph - 0.00 in   Clear
5:35 PM 75.2 °F 57.2 °F 53% 30.07 in 10.0 mi SSW 10.4 mph - 0.00 in   Clear
5:55 PM 75.2 °F 57.2 °F 53% 30.08 in 5.0 mi SW 5.8 mph - 0.00 in   Clear
6:15 PM 73.4 °F 57.2 °F 57% 30.07 in 10.0 mi SW 8.1 mph - 0.00 in   Clear
6:35 PM 71.6 °F 55.4 °F 57% 30.07 in 8.0 mi SW 8.1 mph - 0.00 in   Clear
6:55 PM 71.6 °F 55.4 °F 57% 30.08 in 10.0 mi SW 8.1 mph - 0.00 in   Clear
7:35 PM 69.8 °F 55.4 °F 60% 30.08 in 10.0 mi SW 8.1 mph - 0.00 in   Clear
7:55 PM 68.0 °F 55.4 °F 64% 30.07 in 10.0 mi SSW 8.1 mph - 0.00 in   Clear
8:15 PM 66.2 °F 55.4 °F 68% 30.08 in 10.0 mi WSW 3.5 mph - 0.00 in   Clear
8:35 PM 64.4 °F 55.4 °F 73% 30.08 in 10.0 mi South 4.6 mph - 0.00 in   Clear
8:55 PM 62.6 °F 55.4 °F 77% 30.09 in 10.0 mi South 3.5 mph - 0.00 in   Clear
9:15 PM 62.6 °F 55.4 °F 77% 30.09 in 10.0 mi SW 4.6 mph - 0.00 in   Clear
9:35 PM 60.8 °F 55.4 °F 82% 30.09 in 10.0 mi SW 3.5 mph - 0.00 in   Clear
9:55 PM 60.8 °F 55.4 °F 82% 30.09 in 10.0 mi SW 3.5 mph - 0.00 in   Clear
10:15 PM 60.8 °F 55.4 °F 82% 30.10 in 10.0 mi Calm Calm - 0.00 in   Clear
10:35 PM 59.0 °F 55.4 °F 88% 30.10 in 10.0 mi Calm Calm - 0.00 in   Clear
10:55 PM 57.2 °F 55.4 °F 94% 30.09 in 10.0 mi Calm Calm - 0.00 in   Clear
11:15 PM 57.2 °F 55.4 °F 94% 30.10 in 10.0 mi Calm Calm - 0.00 in   Clear
11:35 PM 57.2 °F 55.4 °F 94% 30.10 in 10.0 mi West 4.6 mph - 0.00 in   Clear
11:55 PM 57.2 °F 53.6 °F 88% 30.10 in 10.0 mi South 3.5 mph - 0.00 in   Clear